Adana/Sakirpasa, Turkey

2:15 PM +03 on January 19, 2017 (GMT +0300)
Adana

Weather History for LTAF - January, 2013

Change the Weather History Date:

Thursday, January 31, 2013

  Actual Average Record
Temperature  
Mean Temperature 53 °F -  
Max Temperature 60 °F 59 °F 68 °F (2001)
Min Temperature 46 °F 40 °F 30 °F (2006)
Degree Days  
Heating Degree Days 12    
Growing Degree Days 3 (Base 50)    
Moisture  
Dew Point 40 °F    
Average Humidity 64    
Maximum Humidity 82    
Minimum Humidity 39    
Precipitation  
Precipitation 0.00 in 0.12 in - ()
Sea Level Pressure  
Sea Level Pressure 29.68 in    
Wind  
Wind Speed 6 mph ()    
Max Wind Speed 10 mph    
Max Gust Speed -    
Visibility 4.3 miles    
Events      
Averages and records for this station are not official NWS values.
T = Trace of Precipitation, MM = Missing Value Source: Averaged Metar Reports

Daily Weather History Graph

Daily Weather History Graph

Search for Another Location

Airport or City:

Trip Planner

Search our weather history database for the weather conditions in past years. The results will help you decide how hot, cold, wet, or windy it might be!

Date:

Astronomy

Jan. 31, 2013 Rise Set
Actual Time 6:42 AM EET 5:02 PM EET
Civil Twilight 6:14 AM EET 5:30 PM EET
Nautical Twilight 5:43 AM EET 6:01 PM EET
Astronomical Twilight 5:13 AM EET 6:31 PM EET
Moon 9:34 PM EET (1/31) 8:38 AM EET (1/31)
Length of Visible Light 11h 15m
Length of Day
10h 20m
Waning Gibbous, 82% of the Moon is Illuminated
Jan 31
Waning Gibbous
Feb 3
Last Quarter
Feb 10
New
Feb 17
First Quarter
Feb 25
Full

Hourly Weather History & Observations

Time (EET) Temp. Windchill Dew Point Humidity Pressure Visibility Wind Dir Wind Speed Gust Speed Precip Events Conditions
12:20 AM 50.0 °F - 42.8 °F 76% 29.71 in 3.1 mi North 4.6 mph - N/A   Mostly Cloudy
12:50 AM 50.0 °F - 41.0 °F 71% 29.71 in 3.1 mi NNE 6.9 mph - N/A   Mostly Cloudy
1:20 AM 48.2 °F - 41.0 °F 76% 29.71 in 3.1 mi NE 6.9 mph - N/A   Mostly Cloudy
1:50 AM 48.2 °F - 41.0 °F 76% 29.71 in 3.1 mi NNE 5.8 mph - N/A   Mostly Cloudy
2:20 AM 50.0 °F - 39.2 °F 66% 29.68 in 3.1 mi NNE 8.1 mph - N/A   Haze
2:50 AM 48.2 °F - 39.2 °F 71% 29.68 in 3.1 mi NE 6.9 mph - N/A   Mostly Cloudy
3:20 AM 48.2 °F - 39.2 °F 71% 29.68 in 3.1 mi NE 5.8 mph - N/A   Mostly Cloudy
3:50 AM 50.0 °F - 39.2 °F 66% 29.65 in 3.1 mi North 6.9 mph - N/A   Haze
4:20 AM 50.0 °F - 39.2 °F 66% 29.65 in 3.1 mi North 5.8 mph - N/A   Haze
4:50 AM 50.0 °F - 39.2 °F 66% 29.65 in 3.1 mi North 4.6 mph - N/A   Haze
5:20 AM 48.2 °F - 39.2 °F 71% 29.65 in 3.1 mi NNE 4.6 mph - N/A   Mostly Cloudy
5:50 AM 48.2 °F - 41.0 °F 76% 29.65 in 3.1 mi NE 4.6 mph - N/A   Mostly Cloudy
6:20 AM 46.4 °F 44.3 °F 41.0 °F 81% 29.65 in 3.1 mi NNE 4.6 mph - N/A   Mostly Cloudy
6:50 AM 48.2 °F - 39.2 °F 71% 29.65 in 3.1 mi ENE 4.6 mph - N/A   Mostly Cloudy
7:20 AM 48.2 °F - 41.0 °F 76% 29.65 in 3.1 mi NE 5.8 mph - N/A   Mostly Cloudy
7:50 AM 51.8 °F - 39.2 °F 62% 29.68 in 3.1 mi ENE 5.8 mph - N/A   Haze
8:20 AM 51.8 °F - 39.2 °F 62% 29.68 in 3.1 mi NE 8.1 mph - N/A   Haze
8:50 AM 51.8 °F - 39.2 °F 62% 29.68 in 3.1 mi NE 6.9 mph - N/A   Haze
9:20 AM 51.8 °F - 39.2 °F 62% 29.68 in 6.2 mi NE 6.9 mph - N/A   Mostly Cloudy
9:50 AM 53.6 °F - 39.2 °F 58% 29.68 in 6.2 mi NE 8.1 mph - N/A   Mostly Cloudy
10:20 AM 55.4 °F - 39.2 °F 54% 29.68 in 6.2 mi ENE 9.2 mph - N/A   Mostly Cloudy
10:50 AM 59.0 °F - 39.2 °F 48% 29.65 in 6.2 mi ENE 9.2 mph - N/A   Scattered Clouds
11:20 AM 59.0 °F - 37.4 °F 45% 29.65 in 6.2 mi East 9.2 mph - N/A   Scattered Clouds
11:50 AM 59.0 °F - 37.4 °F 45% 29.65 in 6.2 mi East 9.2 mph - N/A   Scattered Clouds
12:20 PM 59.0 °F - 37.4 °F 45% 29.65 in 6.2 mi East 9.2 mph - N/A   Scattered Clouds
12:50 PM 60.8 °F - 37.4 °F 42% 29.62 in 6.2 mi East 8.1 mph - N/A   Scattered Clouds
1:20 PM 60.8 °F - 37.4 °F 42% 29.65 in 6.2 mi East 6.9 mph - N/A   Scattered Clouds
1:50 PM 60.8 °F - 35.6 °F 39% 29.62 in 6.2 mi East 6.9 mph - N/A   Scattered Clouds
2:20 PM 60.8 °F - 35.6 °F 39% 29.65 in 6.2 mi ESE 6.9 mph - N/A   Scattered Clouds
2:50 PM 59.0 °F - 37.4 °F 45% 29.65 in 6.2 mi SE 5.8 mph - N/A   Scattered Clouds
3:20 PM 60.8 °F - 39.2 °F 45% 29.65 in 6.2 mi South 6.9 mph - N/A   Scattered Clouds
3:50 PM 57.2 °F - 42.8 °F 59% 29.65 in 6.2 mi SSW 10.4 mph - N/A   Mostly Cloudy
4:20 PM 55.4 °F - 42.8 °F 63% 29.65 in 6.2 mi SSW 10.4 mph - N/A   Scattered Clouds
4:50 PM 53.6 °F - 42.8 °F 67% 29.68 in 6.2 mi SSW 6.9 mph - N/A   Scattered Clouds
5:20 PM 51.8 °F - 44.6 °F 76% 29.68 in 6.2 mi SSW 5.8 mph - N/A   Scattered Clouds
5:50 PM 51.8 °F - 44.6 °F 76% 29.68 in 6.2 mi WSW 3.5 mph - N/A   Scattered Clouds
6:20 PM 51.8 °F - 44.6 °F 76% 29.71 in 3.1 mi WSW 4.6 mph - N/A   Scattered Clouds
6:50 PM 51.8 °F - 42.8 °F 71% 29.71 in 3.1 mi WNW 3.5 mph - N/A   Scattered Clouds
7:20 PM 51.8 °F - 42.8 °F 71% 29.71 in 3.1 mi West 3.5 mph - N/A   Scattered Clouds
7:50 PM 50.0 °F - 44.6 °F 82% 29.71 in 3.1 mi Calm Calm - N/A   Mostly Cloudy
8:20 PM 50.0 °F - 44.6 °F 82% 29.71 in 3.1 mi Calm Calm - N/A   Mostly Cloudy
8:50 PM 50.0 °F - 44.6 °F 82% 29.71 in 3.1 mi South 3.5 mph - N/A   Mostly Cloudy
9:20 PM 51.8 °F - 42.8 °F 71% 29.71 in 3.1 mi NW 3.5 mph - N/A   Mostly Cloudy
9:50 PM 51.8 °F - 37.4 °F 58% 29.71 in 3.1 mi North 4.6 mph - N/A   Haze
10:20 PM 51.8 °F - 35.6 °F 54% 29.71 in 3.1 mi NNE 5.8 mph - N/A   Haze
10:50 PM 48.2 °F - 37.4 °F 66% 29.71 in 3.1 mi NE 4.6 mph - N/A   Haze
11:20 PM 48.2 °F - 37.4 °F 66% 29.71 in 3.1 mi NE 5.8 mph - N/A   Haze
11:50 PM 50.0 °F - 39.2 °F 66% 29.74 in 3.1 mi NE 3.5 mph - N/A   Haze